This demonstration page uses our WeatherBlox Daily Observations layout. Learn more.

41.55636, -103.73856

Hourly Observations for March 28, 2019

Temp ( °F °C ) Dew Point ( °F °C ) Humidity (%) Winds ( mph kmh ) Pressure ( in mb ) Visibility ( mi km ) Precip ( " mm )
12:53 am 00:53 Clear 48 8.9 39 3.9 71 71 E 14 22 29.88 1012 10 16.09344 0.001 0.001
1:53 am 01:53 Clear 45 7.2 39 3.9 80 80 E 10 17 29.88 1012 10 16.09344 0 0
2:53 am 02:53 Clear 40 4.4 37 2.8 89 89 NNE 10 17 29.91 1013 10 16.09344 0 0
3:53 am 03:53 Clear 37 2.8 33 0.6 86 86 NNE 10 17 29.94 1014 10 16.09344 0 0
4:53 am 04:53 Clear 36 2.2 31 -0.6 82 82 NNE 9 15 29.97 1015 10 16.09344 0 0
5:53 am 05:53 Clear 35 1.7 30 -1.1 82 82 E 6 9 30 1016 10 16.09344 0 0
6:53 am 06:53 Sunny 37 2.8 29 -1.7 73 73 ESE 10 17 30 1016 10 16.09344 0 0
7:53 am 07:53 Sunny 38 3.3 30 -1.1 73 73 SE 6 9 30.06 1018 10 16.09344 0 0
8:53 am 08:53 Sunny 41 5 32 0 70 70 E 14 22 30.06 1018 10 16.09344 0 0
9:24 am 09:24 Mostly Cloudy 41 5 33 0.6 73 73 ENE 15 24 30.12 1020 10 16.09344 0 0
9:53 am 09:53 Cloudy 42 5.6 34 1.1 73 73 ENE 15 24 30.09 1019 10 16.09344 0 0
10:53 am 10:53 Cloudy 39 3.9 35 1.7 86 86 NE 17 28 30.12 1020 10 16.09344 0 0
11:00 am 11:00 Cloudy 39 3.9 35 1.7 86 86 ENE 18 30 30.18 1022 10 16.09344 0 0
11:15 am 11:15 Cloudy 40 4.4 35 1.7 83 83 ENE 17 28 30.18 1022 10 16.09344 0 0
11:53 am 11:53 Cloudy 40 4.4 35 1.7 83 83 ENE 15 24 30.12 1020 10 16.09344 0 0
12:08 pm 12:08 Cloudy 39 4 36 2 87 87 ENE 17 28 30.18 1022 10 16.09344 0 0
12:16 pm 12:16 Cloudy 41 5 36 2.2 82 82 ENE 15 24 30.18 1022 10 16.09344 0 0
12:53 pm 12:53 Cloudy 42 5.6 36 2.2 79 79 ENE 15 24 30.09 1019 10 16.09344 0 0
1:53 pm 13:53 Cloudy 43 6.1 37 2.8 80 80 E 12 19 30.09 1019 10 16.09344 0 0
2:53 pm 14:53 Cloudy 43 6.1 37 2.8 80 80 ENE 10 17 30.12 1020 10 16.09344 0 0
3:53 pm 15:53 Cloudy 44 6.7 37 2.8 76 76 E 12 19 30.12 1020 10 16.09344 0 0
4:53 pm 16:53 Cloudy 44 6.7 35 1.7 71 71 E 13 20 30.12 1020 10 16.09344 0 0
5:53 pm 17:53 Cloudy 44 6.7 34 1.1 68 68 E 12 19 30.12 1020 10 16.09344 0 0
6:40 pm 18:40 Cloudy 45 7 34 1 66 66 E 13 20 30.09 1019 10 16.09344 0 0
6:53 pm 18:53 Cloudy 44 6.7 34 1.1 68 68 E 10 17 30.12 1020 10 16.09344 0 0
7:53 pm 19:53 Cloudy 43 6.1 34 1.1 71 71 ESE 6 9 30.15 1021 10 16.09344 0 0
8:53 pm 20:53 Cloudy 43 6.1 35 1.7 74 74 ESE 7 11 30.12 1020 10 16.09344 0 0
9:53 pm 21:53 Cloudy 42 5.6 35 1.7 76 76 ESE 7 11 30.12 1020 10 16.09344 0 0
10:53 pm 22:53 Cloudy 42 5.6 35 1.7 76 76 Calm 30.12 1020 10 16.09344 0 0
11:53 pm 23:53 Cloudy 41 5 35 1.7 79 79 E 8 13 30.12 1020 10 16.09344 0 0

Powered by AerisWeather